Location: Monteux
(44.0348°N, 4.9972°E)
Time: 18:02:21
(UTC+00:00)

Lacrosse 5 rocket - Pass Details

Date: 30 November 2020
Orbit: 461 x 634 km, 57.0° (Epoch: 23 January)

Event Time Altitude Azimuth Distance (km) Brightness Sun altitude
Rises 16:47:26 0° 236° (WSW) 2,543 6.8 -7.9°
Reaches altitude 10° 16:49:39 10° 241° (WSW) 1,646 5.4 -8.3°
Maximum altitude 16:53:16 58° 321° (NW) 551 1.4 -8.9°
Enters shadow 16:56:45 11° 41° (NE) 1,586 3.1 -9.5°
